This is the latest recevied weather packets stored in our database for station/object DL3NDS-WX. If no packets are shown the sender has not sent any weather packets the latest 1 day(s).
| Time | Temp. | Humidity | Pressure | Rain* | Wind** | Luminosity | Snow |
|---|---|---|---|---|---|---|---|
| 1777949842 | 12.78° C | 81% | 1011.5 hPa | 0 mm | 4.02 m/s, 332° | 0 W/m² | - |
| 1777949782 | 12.78° C | 81% | 1011.5 hPa | 0 mm | 4.02 m/s, 328° | 0 W/m² | - |
| 1777949720 | 12.78° C | 81% | 1011.5 hPa | 0 mm | 3.13 m/s, 332° | 0 W/m² | - |
| 1777949658 | 12.78° C | 81% | 1011.4 hPa | 0 mm | 2.68 m/s, 323° | 0 W/m² | - |
| 1777949598 | 12.78° C | 81% | 1011.4 hPa | 0 mm | 3.13 m/s, 323° | 0 W/m² | - |
| 1777949537 | 12.78° C | 81% | 1011.4 hPa | 0 mm | 3.58 m/s, 326° | 0 W/m² | - |
| 1777949475 | 12.78° C | 81% | 1011.5 hPa | 0 mm | 3.58 m/s, 322° | 0 W/m² | - |
| 1777949413 | 12.78° C | 81% | 1011.5 hPa | 0 mm | 3.58 m/s, 324° | 0 W/m² | - |
| 1777949351 | 12.78° C | 80% | 1011.5 hPa | 0 mm | 3.58 m/s, 322° | 0 W/m² | - |
| 1777949291 | 12.78° C | 80% | 1011.5 hPa | 0 mm | 3.58 m/s, 328° | 0 W/m² | - |
| 1777949229 | 12.78° C | 80% | 1011.5 hPa | 0 mm | 4.02 m/s, 323° | 0 W/m² | - |
| 1777949167 | 12.78° C | 80% | 1011.5 hPa | 0 mm | 4.02 m/s, 328° | 0 W/m² | - |
| 1777949107 | 12.78° C | 80% | 1011.5 hPa | 0 mm | 4.02 m/s, 321° | 0 W/m² | - |
| 1777949046 | 12.78° C | 80% | 1011.5 hPa | 0 mm | 4.02 m/s, 316° | 0 W/m² | - |
| 1777948984 | 12.78° C | 80% | 1011.5 hPa | 0 mm | 3.58 m/s, 319° | 0 W/m² | - |
| 1777948922 | 12.78° C | 80% | 1011.5 hPa | 0 mm | 4.47 m/s, 318° | 0 W/m² | - |
| 1777948861 | 12.78° C | 80% | 1011.5 hPa | 0 mm | 4.02 m/s, 336° | 0 W/m² | - |
| 1777948799 | 12.78° C | 80% | 1011.6 hPa | 0 mm | 3.13 m/s, 318° | 0 W/m² | - |
| 1777948738 | 12.78° C | 80% | 1011.5 hPa | 0 mm | 3.13 m/s, 312° | 0 W/m² | - |
| 1777948677 | 12.78° C | 80% | 1011.5 hPa | 0 mm | 3.58 m/s, 322° | 0 W/m² | - |
| 1777948614 | 12.78° C | 80% | 1011.5 hPa | 0 mm | 3.58 m/s, 332° | 0 W/m² | - |
| 1777948555 | 12.78° C | 80% | 1011.6 hPa | 0 mm | 3.58 m/s, 322° | 0 W/m² | - |
| 1777948493 | 12.78° C | 80% | 1011.6 hPa | 0 mm | 4.47 m/s, 330° | 0 W/m² | - |
| 1777948432 | 12.78° C | 80% | 1011.6 hPa | 0 mm | 4.02 m/s, 326° | 0 W/m² | - |
| 1777948373 | 12.78° C | 80% | 1011.6 hPa | 0 mm | 3.58 m/s, 324° | 0 W/m² | - |
* Rain latest hour (hover to see other rain measurements)
** Current wind speed in m/s (hover to see current wind gust speed)